Overview Statistics Trail Chart Weather Telemetry Raw packets
 

This is the latest recevied weather packets stored in our database for station/object IZ8FMH-11. If no packets are shown the sender has not sent any weather packets the latest 10 day(s).

<< 14 15 16 17 18 19 >>
Time Temp. Humidity Pressure Rain* Wind** Luminosity Snow
1787880897 28.33° C 49% 1014.7 hPa - - - -
1787879096 28.33° C 44% 1014.8 hPa - - - -
1787877297 28.89° C 44% 1015 hPa - - - -
1787875498 28.89° C 46% 1015.5 hPa - - - -
1787873698 28.89° C 43% 1015.4 hPa - - - -
1787871898 29.44° C 47% 1015.8 hPa - - - -
1787870098 29.44° C 44% 1015.9 hPa - - - -
1787868298 29.44° C 47% 1015.7 hPa - - - -
1787866498 29.44° C 40% 1015.9 hPa - - - -
1787864698 30° C 41% 1015.7 hPa - - - -
1787862898 30° C 42% 1016 hPa - - - -
1787861097 30.56° C 46% 1016.2 hPa - - - -
1787859297 30.56° C 48% 1016 hPa - - - -
1787857497 31.11° C 52% 1015.9 hPa - - - -
1787855697 31.11° C 56% 1015.7 hPa - - - -
1787853897 31.67° C 64% 1015.9 hPa - - - -
1787852097 31.67° C 65% 1015.6 hPa - - - -
1787850297 32.22° C 63% 1015.8 hPa - - - -
1787848497 32.22° C 62% 1015.8 hPa - - - -
1787846697 32.22° C 62% 1015.6 hPa - - - -
1787844896 32.78° C 61% 1015.3 hPa - - - -
1787843096 32.78° C 62% 1015.3 hPa - - - -
1787841296 32.78° C 60% 1015.4 hPa - - - -
1787839496 32.78° C 56% 1015.2 hPa - - - -
1787835896 32.78° C 45% 1014.7 hPa - - - -

* Rain since midnight (hover to see other rain measurements)
** Current wind speed in m/s (hover to see current wind gust speed)